Location: Proctor
(47.8934°N, 114.3048°W)
Time: 08:30:08
(UTC+00:00)

Vanguard 2 Rocket - Pass Details

Date: 20 June 2024
Orbit: 555 x 3303 km, 32.9° (Epoch: 13 July)

Event Time Altitude Azimuth Distance (km) Brightness Sun altitude
Exits shadow 08:50:04 17° 181° (S) 5,546 10.3 -16.9°
Maximum altitude 09:00:03 26° 145° (SE) 4,963 10.3 -16.4°
Drops below altitude 10° 09:13:42 10° 98° (E) 5,773 11.2 -15.6°
Sets 09:18:44 0° 87° (E) 6,469 11.6 -15.2°
